Location: Ailingen
(47.6833°N, 9.5000°E)
Time: 07:12:06
(UTC+00:00)

Cosmos 44 Rocket - Pass Details

Date: 18 November 2025
Orbit: 637 x 741 km, 65.1° (Epoch: 13 December)

Event Time Altitude Azimuth Distance (km) Brightness Sun altitude
Rises 16:36:32 0° 199° (SSW) 2,976 7.1 -9.2°
Reaches altitude 10° 16:38:51 10° 193° (SSW) 2,084 6.2 -9.6°
Maximum altitude 16:43:24 48° 120° (ESE) 889 3.6 -10.3°
Enters shadow 16:47:44 12° 48° (NE) 2,021 5.1 -11.0°
